STARLINK-11482, 62520

Orbit data source: Space-Track

STARLINK-11482, 62520 is a payload satellite owned by SpaceX/Seattle (US) in LEO that was launched on Wed, 08 Jan 2025 UTC via an FALCON 9 launch vehicle from the Air Force Eastern Test Range (AFETR). Payload-class satellites include a variety of spacecraft equipped with specific instruments for various scientific and technological missions. These include communications satellites like Starlink; space stations such as the ISS; scientific satellites like the Hubble; Earth observation satellites from companies like Planet Labs, Umbra, and HawkEye 360; GPS; miniature CubeSats for education and research; and military/defense satellites.

Loading next visibility...
Identifier
62520, 2025-004K
Orbit
LEO
Country
Flag of USUS
Related business
Manufacturer
SpaceX/Seattle
Mission
Operational Commercial Communications
Bus & Motor
STARLINK V2MD, Unknown motor
Mass
960 kg wet, ~910 kg dry
Launch date (UTC)
2025-01-08 (10 months ago)
Launch vehicle
FALCON 9
Launch site
Air Force Eastern Test Range (AFETR)
Object type
Payload
Rocket body
Debris
Shape & HBR
Box + 2 Pan, 18.1 m
Radar Cross Section
36.964 m², Large (>1 m²)

Expand to show TLE details & history
Last TLE update: 14 hours ago

TLE from 14 hours ago
0 STARLINK-11482
1 62520U 25004K   25308.88530481  .00116258  00000-0  89652-3 0  9997
2 62520  42.9997 102.6846 0001917 267.7208  92.3440 15.70849575 47581
Epoch: 2025-11-04T21:14Z
TLE epoch observation values (Epoch: 2025-11-04T21:14:50.335Z)
Latitude
-0.00003°
Longitude
99.60893°
Altitude
356.292 km
Speed
7.697 km/s
True Right ascension
06h 50m 44s
True Declination
0° 00' 00"
Sunlit
Object was in full shadow at epoch
Visualization orbit readout
Latitude
Unknown
Longitude
Unknown
Altitude
Unknown
Speed
Unknown
Apparent Right ascension
Unknown
Apparent Declination
Unknown
Sunlit
N/A
Visualization observer readout
Local Sidereal Time
07:06:21
Azimuth
Unknown
Elevation
Unknown
Doppler factor
Unknown
Orbital elements
Apogee altitude
359.741 km
Perigee altitude
357.158 km
Semi-major axis
6,736.586 km
Eccentricity
0.00019
Inclination
42.9997°
RAAN
102.6846°
Arg. of periapsis
267.7208°
True anomaly
92.36595°
Mean anomaly
92.344°
Eccentric anomaly
92.35497°
Mean motion
3.92539 °/min
Orbital period
91.71 mins
BSTAR
0.00089652
Loading maneuver chart data...
Computing Atmospheric mass density...
Loading historical data...
Loading historical data...
Loading historical data...
Loading historical data...
Loading historical data...
Loading historical data...
Loading historical data...

Documentation

Showing up to 5 results
|